Year,Month,Day,Hour,Minute,Value (Times are PST for temperature in C)
2016,07,06,00,00,13.90
2016,07,06,00,01,13.90
2016,07,06,00,03,13.80
2016,07,06,00,04,13.80
2016,07,06,00,05,13.70
2016,07,06,00,06,13.70
2016,07,06,00,07,13.70
2016,07,06,00,08,13.70
2016,07,06,00,09,13.70
2016,07,06,00,10,13.70
2016,07,06,00,12,13.70
2016,07,06,00,13,13.60
2016,07,06,00,14,13.60
2016,07,06,00,15,13.60
2016,07,06,00,17,13.50
2016,07,06,00,18,13.50
2016,07,06,00,19,13.40
2016,07,06,00,20,13.40
2016,07,06,00,22,13.30
2016,07,06,00,24,13.30
2016,07,06,00,25,13.30
2016,07,06,00,26,13.30
2016,07,06,00,27,13.30
2016,07,06,00,28,13.30
2016,07,06,00,29,13.30
2016,07,06,00,31,13.20
2016,07,06,00,33,13.20
2016,07,06,00,36,13.10
2016,07,06,00,37,13.10
2016,07,06,00,38,13.00
2016,07,06,00,39,13.00
2016,07,06,00,41,13.00
2016,07,06,00,42,13.00
2016,07,06,00,44,12.90
2016,07,06,00,46,12.90
2016,07,06,00,47,12.90
2016,07,06,00,49,12.80
2016,07,06,00,51,12.80
2016,07,06,00,53,12.80
2016,07,06,00,54,12.80
2016,07,06,00,56,12.80
2016,07,06,00,57,12.70
2016,07,06,01,01,12.70
2016,07,06,01,02,12.60
2016,07,06,01,04,12.60
2016,07,06,01,06,12.60
2016,07,06,01,07,12.60
2016,07,06,01,08,12.60
2016,07,06,01,09,12.60
2016,07,06,01,10,12.60
2016,07,06,01,11,12.60
2016,07,06,01,16,12.50
2016,07,06,01,17,12.50
2016,07,06,01,19,12.40
2016,07,06,01,20,12.40
2016,07,06,01,22,12.30
2016,07,06,01,24,12.30
2016,07,06,01,26,12.30
2016,07,06,01,28,12.30
2016,07,06,01,29,12.20
2016,07,06,01,31,12.10
2016,07,06,01,32,12.10
2016,07,06,01,34,12.00
2016,07,06,01,36,12.00
2016,07,06,01,37,12.00
2016,07,06,01,40,11.90
2016,07,06,01,42,11.90
2016,07,06,01,47,11.90
2016,07,06,01,48,11.90
2016,07,06,01,49,11.90
2016,07,06,01,50,11.90
2016,07,06,01,53,11.80
2016,07,06,01,54,11.80
2016,07,06,01,56,11.80
2016,07,06,01,57,11.80
2016,07,06,01,58,11.80
2016,07,06,02,00,11.80
2016,07,06,02,01,11.80
2016,07,06,02,03,11.80
2016,07,06,02,06,11.80
2016,07,06,02,07,11.80
2016,07,06,02,09,11.80
2016,07,06,02,10,11.80
2016,07,06,02,11,11.70
2016,07,06,02,12,11.70
2016,07,06,02,13,11.70
2016,07,06,02,15,11.60
2016,07,06,02,16,11.60
2016,07,06,02,17,11.60
2016,07,06,02,19,11.60
2016,07,06,02,22,11.60
2016,07,06,02,23,11.60
2016,07,06,02,32,11.60
2016,07,06,02,33,11.60
2016,07,06,02,34,11.60
2016,07,06,02,35,11.60
2016,07,06,02,37,11.60
2016,07,06,02,39,11.60
2016,07,06,02,40,11.60
2016,07,06,02,41,11.60
2016,07,06,02,42,11.60
2016,07,06,02,43,11.60
2016,07,06,02,44,11.60
2016,07,06,02,45,11.60
2016,07,06,02,48,11.60
2016,07,06,02,49,11.60
2016,07,06,02,50,11.60
2016,07,06,02,51,11.60
2016,07,06,02,55,11.60
2016,07,06,02,56,11.60
2016,07,06,02,57,11.60
2016,07,06,02,58,11.40
2016,07,06,02,59,11.40
2016,07,06,03,00,11.40
2016,07,06,03,01,11.40
2016,07,06,03,02,11.40
2016,07,06,03,03,11.40
2016,07,06,03,05,11.40
2016,07,06,03,06,11.40
2016,07,06,03,08,11.40
2016,07,06,03,09,11.60
2016,07,06,03,10,11.60
2016,07,06,03,11,11.60
2016,07,06,03,12,11.60
2016,07,06,03,13,11.60
2016,07,06,03,14,11.60
2016,07,06,03,15,11.60
2016,07,06,03,16,11.60
2016,07,06,03,18,11.60
2016,07,06,03,20,11.70
2016,07,06,03,23,11.70
2016,07,06,03,24,11.70
2016,07,06,03,26,11.70
2016,07,06,03,27,11.70
2016,07,06,03,28,11.70
2016,07,06,03,29,11.80
2016,07,06,03,30,11.80
2016,07,06,03,34,11.80
2016,07,06,03,36,11.80
2016,07,06,03,37,11.80
2016,07,06,03,38,11.80
2016,07,06,03,39,11.80
2016,07,06,03,41,11.80
2016,07,06,03,42,11.80
2016,07,06,03,44,11.80
2016,07,06,03,46,11.80
2016,07,06,03,47,11.80
2016,07,06,03,48,11.80
2016,07,06,03,49,11.80
2016,07,06,03,50,11.80
2016,07,06,03,54,11.80
2016,07,06,03,56,11.90
2016,07,06,03,57,11.90
2016,07,06,03,58,11.90
2016,07,06,03,59,11.90
2016,07,06,04,01,11.90
2016,07,06,04,04,11.90
2016,07,06,04,06,11.90
2016,07,06,04,07,11.90
2016,07,06,04,08,11.90
2016,07,06,04,09,11.90
2016,07,06,04,11,11.90
2016,07,06,04,12,11.80
2016,07,06,04,17,11.80
2016,07,06,04,21,11.80
2016,07,06,04,22,11.80
2016,07,06,04,23,11.80
2016,07,06,04,26,11.80
2016,07,06,04,28,11.80
2016,07,06,04,29,11.80
2016,07,06,04,30,11.80
2016,07,06,04,31,11.80
2016,07,06,04,32,11.80
2016,07,06,04,33,11.80
2016,07,06,04,36,11.80
2016,07,06,04,37,11.80
2016,07,06,04,39,11.80
2016,07,06,04,40,11.80
2016,07,06,04,42,11.80
2016,07,06,04,43,11.80
2016,07,06,04,45,11.80
2016,07,06,04,48,11.80
2016,07,06,04,49,11.80
2016,07,06,04,50,11.80
2016,07,06,04,51,11.80
2016,07,06,04,52,11.80
2016,07,06,04,53,11.80
2016,07,06,04,55,11.80
2016,07,06,04,56,11.80
2016,07,06,04,59,11.80
2016,07,06,05,00,11.80
2016,07,06,05,01,11.80
2016,07,06,05,02,11.80
2016,07,06,05,03,11.80
2016,07,06,05,04,11.80
2016,07,06,05,05,11.80
2016,07,06,05,07,11.80
2016,07,06,05,09,11.80
2016,07,06,05,10,11.80
2016,07,06,05,11,11.80
2016,07,06,05,12,11.80
2016,07,06,05,13,11.80
2016,07,06,05,14,11.80
2016,07,06,05,15,11.80
2016,07,06,05,16,11.70
2016,07,06,05,18,11.70
2016,07,06,05,20,11.70
2016,07,06,05,23,11.70
2016,07,06,05,25,11.60
2016,07,06,05,26,11.60
2016,07,06,05,28,11.60
2016,07,06,05,29,11.60
2016,07,06,05,30,11.60
2016,07,06,05,31,11.60
2016,07,06,05,32,11.60
2016,07,06,05,33,11.60
2016,07,06,05,34,11.60
2016,07,06,05,35,11.60
2016,07,06,05,36,11.60
2016,07,06,05,37,11.40
2016,07,06,05,40,11.40
2016,07,06,05,41,11.40
2016,07,06,05,42,11.40
2016,07,06,05,45,11.40
2016,07,06,05,50,11.30
2016,07,06,05,51,11.30
2016,07,06,05,52,11.30
2016,07,06,06,02,11.30
2016,07,06,06,03,11.30
2016,07,06,06,04,11.30
2016,07,06,06,05,11.30
2016,07,06,06,07,11.30
2016,07,06,06,08,11.40
2016,07,06,06,09,11.40
2016,07,06,06,10,11.40
2016,07,06,06,12,11.40
2016,07,06,06,13,11.40
2016,07,06,06,15,11.40
2016,07,06,06,16,11.40
2016,07,06,06,19,11.60
2016,07,06,06,21,11.60
2016,07,06,06,22,11.60
2016,07,06,06,23,11.60
2016,07,06,06,24,11.60
2016,07,06,06,26,11.60
2016,07,06,06,29,11.70
2016,07,06,06,30,11.70
2016,07,06,06,32,11.80
2016,07,06,06,33,11.80
2016,07,06,06,34,11.80
2016,07,06,06,35,11.80
2016,07,06,06,37,11.80
2016,07,06,06,39,11.90
2016,07,06,06,41,11.90
2016,07,06,06,42,11.90
2016,07,06,06,43,12.00
2016,07,06,06,44,12.00
2016,07,06,07,29,12.50
2016,07,06,07,31,12.50
2016,07,06,07,32,12.50
2016,07,06,07,33,12.50
2016,07,06,07,34,12.50
2016,07,06,07,35,12.50
2016,07,06,07,36,12.50
2016,07,06,07,38,12.60
2016,07,06,07,39,12.50
2016,07,06,07,41,12.50
2016,07,06,07,44,12.60
2016,07,06,07,46,12.60
2016,07,06,07,47,12.60
2016,07,06,07,48,12.60
2016,07,06,07,49,12.70
2016,07,06,07,51,12.70
2016,07,06,07,52,12.70
2016,07,06,07,53,12.70
2016,07,06,07,54,12.70
2016,07,06,07,56,12.70
2016,07,06,07,57,12.70
2016,07,06,07,58,12.70
2016,07,06,07,59,12.70
2016,07,06,08,02,12.70
2016,07,06,08,03,12.70
2016,07,06,08,04,12.80
2016,07,06,08,06,12.80
2016,07,06,08,07,12.80
2016,07,06,08,08,12.80
2016,07,06,08,09,12.80
2016,07,06,08,10,12.80
2016,07,06,08,11,12.80
2016,07,06,08,14,12.80
2016,07,06,08,15,12.80
2016,07,06,08,16,12.90
2016,07,06,08,18,12.90
2016,07,06,08,19,12.90
2016,07,06,08,21,13.00
2016,07,06,08,22,13.00
2016,07,06,08,23,13.00
2016,07,06,08,24,13.00
2016,07,06,08,25,13.00
2016,07,06,08,26,13.00
2016,07,06,08,27,13.10
2016,07,06,08,28,13.10
2016,07,06,08,29,13.10
2016,07,06,08,30,13.10
2016,07,06,08,31,13.20
2016,07,06,08,32,13.20
2016,07,06,08,33,13.20
2016,07,06,08,34,13.30
2016,07,06,08,35,13.30
2016,07,06,08,36,13.30
2016,07,06,08,37,13.30
2016,07,06,08,38,13.30
2016,07,06,08,39,13.20
2016,07,06,08,40,13.20
2016,07,06,08,41,13.20
2016,07,06,08,42,13.20
2016,07,06,08,43,13.20
2016,07,06,08,44,13.20
2016,07,06,08,45,13.20
2016,07,06,08,46,13.20
2016,07,06,08,47,13.20
2016,07,06,08,48,13.20
2016,07,06,08,49,13.20
2016,07,06,08,50,13.20
2016,07,06,08,51,13.30
2016,07,06,08,52,13.30
2016,07,06,08,53,13.30
2016,07,06,08,54,13.30
2016,07,06,08,55,13.30
2016,07,06,08,56,13.30
2016,07,06,08,57,13.30
2016,07,06,08,58,13.30
2016,07,06,08,59,13.30
2016,07,06,09,00,13.30
2016,07,06,09,01,13.40
2016,07,06,09,02,13.40
2016,07,06,09,03,13.40
2016,07,06,09,04,13.40
2016,07,06,09,05,13.40
2016,07,06,09,06,13.40
2016,07,06,09,07,13.40
2016,07,06,09,08,13.50
2016,07,06,09,09,13.50
2016,07,06,09,10,13.60
2016,07,06,09,11,13.60
2016,07,06,09,12,13.70
2016,07,06,09,13,13.70
2016,07,06,09,14,13.70
2016,07,06,09,15,13.80
2016,07,06,09,16,13.90
2016,07,06,09,17,13.90
2016,07,06,09,18,13.90
2016,07,06,09,19,14.00
2016,07,06,09,20,14.10
2016,07,06,09,21,14.20
2016,07,06,09,22,14.20
2016,07,06,09,23,14.20
2016,07,06,09,24,14.30
2016,07,06,09,25,14.40
2016,07,06,09,26,14.50
2016,07,06,09,27,14.60
2016,07,06,09,28,14.70
2016,07,06,09,29,14.80
2016,07,06,09,30,14.80
2016,07,06,09,31,14.80
2016,07,06,09,32,14.80
2016,07,06,09,33,14.90
2016,07,06,09,34,14.90
2016,07,06,09,35,15.00
2016,07,06,09,37,15.00
2016,07,06,09,38,15.00
2016,07,06,09,39,14.90
2016,07,06,09,41,14.90
2016,07,06,09,42,15.00
2016,07,06,09,43,15.00
2016,07,06,09,44,15.00
2016,07,06,09,46,15.00
2016,07,06,09,47,15.00
2016,07,06,09,48,15.00
2016,07,06,09,49,15.00
2016,07,06,09,51,15.00
2016,07,06,09,52,15.10
2016,07,06,09,53,15.10
2016,07,06,09,54,15.10
2016,07,06,09,56,15.10
2016,07,06,09,57,15.20
2016,07,06,09,58,15.20
2016,07,06,09,59,15.30
2016,07,06,10,01,15.40
2016,07,06,10,02,15.50
2016,07,06,10,03,15.60
2016,07,06,10,04,15.60
2016,07,06,10,06,15.80
2016,07,06,10,07,15.80
2016,07,06,10,08,15.90
2016,07,06,10,09,16.10
2016,07,06,10,11,16.20
2016,07,06,10,12,16.30
2016,07,06,10,13,16.30
2016,07,06,10,14,16.30
2016,07,06,10,16,16.30
2016,07,06,10,17,16.30
2016,07,06,10,18,16.30
2016,07,06,10,19,16.30
2016,07,06,10,21,16.40
2016,07,06,10,22,16.40
2016,07,06,10,23,16.40
2016,07,06,10,24,16.60
2016,07,06,10,26,16.60
2016,07,06,10,27,16.60
2016,07,06,10,28,16.40
2016,07,06,10,29,16.40
2016,07,06,10,31,16.40
2016,07,06,10,32,16.40
2016,07,06,10,33,16.60
2016,07,06,10,34,16.40
2016,07,06,10,36,16.40
2016,07,06,10,37,16.40
2016,07,06,10,38,16.60
2016,07,06,10,39,16.60
2016,07,06,10,41,16.60
2016,07,06,10,42,16.60
2016,07,06,10,43,16.70
2016,07,06,10,44,16.70
2016,07,06,10,46,16.70
2016,07,06,10,47,16.70
2016,07,06,10,48,16.70
2016,07,06,10,49,16.70
2016,07,06,10,51,16.70
2016,07,06,10,52,16.70
2016,07,06,10,53,16.80
2016,07,06,10,54,16.90
2016,07,06,10,55,16.90
2016,07,06,10,56,16.90
2016,07,06,10,57,17.00
2016,07,06,10,58,17.10
2016,07,06,10,59,17.30
2016,07,06,11,00,17.30
2016,07,06,11,01,17.30
2016,07,06,11,02,17.40
2016,07,06,11,03,17.40
2016,07,06,11,04,17.40
2016,07,06,11,06,17.40
2016,07,06,11,07,17.40
2016,07,06,11,08,17.40
2016,07,06,11,09,17.50
2016,07,06,11,10,17.60
2016,07,06,11,11,17.60
2016,07,06,11,12,17.60
2016,07,06,11,13,17.60
2016,07,06,11,14,17.70
2016,07,06,11,15,17.70
2016,07,06,11,16,17.80
2016,07,06,11,17,17.80
2016,07,06,11,18,17.80
2016,07,06,11,19,17.90
2016,07,06,11,20,17.90
2016,07,06,11,21,17.90
2016,07,06,11,22,17.90
2016,07,06,11,23,17.90
2016,07,06,11,24,17.90
2016,07,06,11,25,17.90
2016,07,06,11,26,17.90
2016,07,06,11,27,17.90
2016,07,06,11,28,17.90
2016,07,06,11,29,17.90
2016,07,06,11,30,17.90
2016,07,06,11,31,17.90
2016,07,06,11,32,18.10
2016,07,06,11,33,17.90
2016,07,06,11,34,17.90
2016,07,06,11,35,17.90
2016,07,06,11,36,17.90
2016,07,06,11,37,18.10
2016,07,06,11,38,17.90
2016,07,06,11,39,17.90
2016,07,06,11,40,17.90
2016,07,06,11,41,17.90
2016,07,06,11,42,17.90
2016,07,06,11,43,17.90
2016,07,06,11,44,17.90
2016,07,06,11,45,17.80
2016,07,06,11,46,17.70
2016,07,06,11,47,17.70
2016,07,06,11,48,17.60
2016,07,06,11,49,17.60
2016,07,06,11,50,17.60
2016,07,06,11,51,17.50
2016,07,06,11,52,17.50
2016,07,06,11,53,17.50
2016,07,06,11,54,17.60
2016,07,06,11,55,17.60
2016,07,06,11,56,17.50
2016,07,06,11,57,17.50
2016,07,06,11,58,17.60
2016,07,06,11,59,17.60
2016,07,06,12,00,17.50
2016,07,06,12,01,17.40
2016,07,06,12,02,17.30
2016,07,06,12,03,17.30
2016,07,06,12,04,17.30
2016,07,06,12,05,17.30
2016,07,06,12,06,17.30
2016,07,06,12,07,17.40
2016,07,06,12,08,17.40
2016,07,06,12,09,17.40
2016,07,06,12,10,17.50
2016,07,06,12,11,17.50
2016,07,06,12,12,17.40
2016,07,06,12,13,17.40
2016,07,06,12,14,17.40
2016,07,06,12,15,17.30
2016,07,06,12,16,17.30
2016,07,06,12,17,17.30
2016,07,06,12,18,17.30
2016,07,06,12,19,17.30
2016,07,06,12,20,17.30
2016,07,06,12,21,17.30
2016,07,06,12,22,17.30
2016,07,06,12,23,17.30
2016,07,06,12,24,17.30
2016,07,06,12,26,17.30
2016,07,06,12,27,17.30
2016,07,06,12,28,17.30
2016,07,06,12,29,17.30
2016,07,06,12,31,17.30
2016,07,06,12,32,17.30
2016,07,06,12,33,17.30
2016,07,06,12,34,17.30
2016,07,06,12,36,17.30
2016,07,06,12,37,17.30
2016,07,06,12,38,17.30
2016,07,06,12,39,17.30
2016,07,06,12,41,17.40
2016,07,06,12,42,17.40
2016,07,06,12,43,17.40
2016,07,06,12,44,17.40
2016,07,06,12,46,17.40
2016,07,06,12,47,17.50
2016,07,06,12,48,17.60
2016,07,06,12,49,17.70
2016,07,06,12,51,17.90
2016,07,06,12,52,17.90
2016,07,06,12,53,17.90
2016,07,06,12,54,18.10
2016,07,06,12,56,18.20
2016,07,06,12,57,18.20
2016,07,06,12,58,18.30
2016,07,06,12,59,18.30
2016,07,06,13,01,18.40
2016,07,06,13,02,18.40
2016,07,06,13,03,18.50
2016,07,06,13,04,18.50
2016,07,06,13,06,18.60
2016,07,06,13,07,18.70
2016,07,06,13,08,18.80
2016,07,06,13,09,18.90
2016,07,06,13,11,18.90
2016,07,06,13,12,18.90
2016,07,06,13,13,18.90
2016,07,06,13,14,18.90
2016,07,06,13,16,18.90
2016,07,06,13,17,18.90
2016,07,06,13,18,18.90
2016,07,06,13,19,18.90
2016,07,06,13,21,18.90
2016,07,06,13,22,18.90
2016,07,06,13,23,18.90
2016,07,06,13,24,18.90
2016,07,06,13,26,18.70
2016,07,06,13,27,18.70
2016,07,06,13,28,18.60
2016,07,06,13,29,18.50
2016,07,06,13,31,18.40
2016,07,06,13,32,18.40
2016,07,06,13,33,18.30
2016,07,06,13,34,18.30
2016,07,06,13,36,18.30
2016,07,06,13,37,18.20
2016,07,06,13,38,18.30
2016,07,06,13,39,18.30
2016,07,06,13,41,18.40
2016,07,06,13,42,18.50
2016,07,06,13,43,18.50
2016,07,06,13,44,18.50
2016,07,06,13,45,18.60
2016,07,06,13,46,18.70
2016,07,06,13,47,18.90
2016,07,06,13,48,18.90
2016,07,06,13,49,19.10
2016,07,06,13,50,19.20
2016,07,06,13,51,19.30
2016,07,06,13,52,19.40
2016,07,06,13,53,19.50
2016,07,06,13,54,19.50
2016,07,06,13,55,19.50
2016,07,06,13,56,19.50
2016,07,06,13,57,19.50
2016,07,06,13,58,19.60
2016,07,06,13,59,19.60
2016,07,06,14,00,19.60
2016,07,06,14,01,19.60
2016,07,06,14,02,19.60
2016,07,06,14,03,19.60
2016,07,06,14,04,19.60
2016,07,06,14,05,19.60
2016,07,06,14,06,19.60
2016,07,06,14,07,19.70
2016,07,06,14,08,19.70
2016,07,06,14,09,19.80
2016,07,06,14,10,19.80
2016,07,06,14,11,19.90
2016,07,06,14,12,19.90
2016,07,06,14,13,19.90
2016,07,06,14,14,19.90
2016,07,06,14,15,20.10
2016,07,06,14,16,20.10
2016,07,06,14,17,20.10
2016,07,06,14,18,20.10
2016,07,06,14,19,20.10
2016,07,06,14,20,20.10
2016,07,06,14,21,20.10
2016,07,06,14,22,20.10
2016,07,06,14,23,20.10
2016,07,06,14,24,20.10
2016,07,06,14,25,19.90
2016,07,06,14,26,19.90
2016,07,06,14,27,19.90
2016,07,06,14,28,19.90
2016,07,06,14,29,19.90
2016,07,06,14,30,19.90
2016,07,06,14,31,19.80
2016,07,06,14,32,19.80
2016,07,06,14,33,19.70
2016,07,06,14,34,19.70
2016,07,06,14,35,19.70
2016,07,06,14,36,19.60
2016,07,06,14,37,19.60
2016,07,06,14,38,19.50
2016,07,06,14,39,19.50
2016,07,06,14,40,19.50
2016,07,06,14,41,19.50
2016,07,06,14,42,19.50
2016,07,06,14,43,19.50
2016,07,06,14,44,19.60
2016,07,06,14,45,19.70
2016,07,06,14,46,19.80
2016,07,06,14,47,19.90
2016,07,06,14,48,19.90
2016,07,06,14,49,20.20
2016,07,06,14,50,20.20
2016,07,06,14,51,20.20
2016,07,06,14,52,20.30
2016,07,06,14,53,20.40
2016,07,06,14,54,20.40
2016,07,06,14,55,20.40
2016,07,06,14,56,20.40
2016,07,06,14,57,20.50
2016,07,06,14,58,20.50
2016,07,06,14,59,20.50
2016,07,06,15,00,20.60
2016,07,06,15,01,20.60
2016,07,06,15,02,20.60
2016,07,06,15,03,20.60
2016,07,06,15,04,20.60
2016,07,06,15,05,20.60
2016,07,06,15,06,20.70
2016,07,06,15,07,20.70
2016,07,06,15,08,20.70
2016,07,06,15,09,20.70
2016,07,06,15,10,20.70
2016,07,06,15,11,20.70
2016,07,06,15,12,20.60
2016,07,06,15,13,20.60
2016,07,06,15,14,20.50
2016,07,06,15,16,20.40
2016,07,06,15,17,20.40
2016,07,06,15,18,20.40
2016,07,06,15,19,20.30
2016,07,06,15,21,20.20
2016,07,06,15,22,20.20
2016,07,06,15,23,20.20
2016,07,06,15,24,20.10
2016,07,06,15,26,19.90
2016,07,06,15,27,19.90
2016,07,06,15,28,19.90
2016,07,06,15,29,19.90
2016,07,06,15,31,19.90
2016,07,06,15,32,19.90
2016,07,06,15,33,19.90
2016,07,06,15,34,19.90
2016,07,06,15,36,19.70
2016,07,06,15,37,19.60
2016,07,06,15,38,19.50
2016,07,06,15,39,19.50
2016,07,06,15,41,19.40
2016,07,06,15,42,19.40
2016,07,06,15,43,19.40
2016,07,06,15,44,19.40
2016,07,06,15,46,19.40
2016,07,06,15,47,19.40
2016,07,06,15,48,19.40
2016,07,06,15,49,19.50
2016,07,06,15,51,19.50
2016,07,06,15,52,19.50
2016,07,06,15,53,19.50
2016,07,06,15,54,19.60
2016,07,06,15,56,19.70
2016,07,06,15,57,19.80
2016,07,06,15,58,19.90
2016,07,06,15,59,19.90
2016,07,06,16,01,20.10
2016,07,06,16,02,20.20
2016,07,06,16,03,20.20
2016,07,06,16,04,20.20
2016,07,06,16,06,20.20
2016,07,06,16,07,20.20
2016,07,06,16,08,20.30
2016,07,06,16,09,20.20
2016,07,06,16,11,20.20
2016,07,06,16,12,20.20
2016,07,06,16,13,20.20
2016,07,06,16,14,20.20
2016,07,06,16,16,20.20
2016,07,06,16,17,20.20
2016,07,06,16,18,20.20
2016,07,06,16,19,20.20
2016,07,06,16,21,20.20
2016,07,06,16,22,20.30
2016,07,06,16,23,20.30
2016,07,06,16,24,20.40
2016,07,06,16,26,20.40
2016,07,06,16,27,20.40
2016,07,06,16,28,20.40
2016,07,06,16,29,20.30
2016,07,06,16,31,20.30
2016,07,06,16,32,20.20
2016,07,06,16,33,20.20
2016,07,06,16,34,20.20
2016,07,06,16,36,20.20
2016,07,06,16,37,20.20
2016,07,06,16,38,20.10
2016,07,06,16,39,20.10
2016,07,06,16,40,20.10
2016,07,06,16,41,19.90
2016,07,06,16,42,19.90
2016,07,06,16,43,19.80
2016,07,06,16,44,19.80
2016,07,06,16,45,19.70
2016,07,06,16,46,19.70
2016,07,06,16,47,19.70
2016,07,06,16,48,19.70
2016,07,06,16,49,19.70
2016,07,06,16,50,19.70
2016,07,06,16,51,19.70
2016,07,06,16,52,19.70
2016,07,06,16,53,19.70
2016,07,06,16,54,19.80
2016,07,06,16,55,19.80
2016,07,06,16,56,19.80
2016,07,06,16,57,19.90
2016,07,06,16,58,19.90
2016,07,06,16,59,19.90
2016,07,06,17,00,19.90
2016,07,06,17,01,19.90
2016,07,06,17,02,19.90
2016,07,06,17,03,20.10
2016,07,06,17,04,20.20
2016,07,06,17,05,20.20
2016,07,06,17,06,20.30
2016,07,06,17,07,20.40
2016,07,06,17,08,20.50
2016,07,06,17,09,20.50
2016,07,06,17,10,20.50
2016,07,06,17,11,20.50
2016,07,06,17,12,20.60
2016,07,06,17,13,20.60
2016,07,06,17,14,20.70
2016,07,06,17,15,20.70
2016,07,06,17,16,20.80
2016,07,06,17,17,20.80
2016,07,06,17,18,20.90
2016,07,06,17,19,20.90
2016,07,06,17,20,20.90
2016,07,06,17,21,20.90
2016,07,06,17,22,20.90
2016,07,06,17,23,20.80
2016,07,06,17,24,20.70
2016,07,06,17,25,20.70
2016,07,06,17,26,20.60
2016,07,06,17,27,20.60
2016,07,06,17,28,20.50
2016,07,06,17,29,20.50
2016,07,06,17,30,20.50
2016,07,06,17,31,20.50
2016,07,06,17,32,20.50
2016,07,06,17,33,20.40
2016,07,06,17,34,20.30
2016,07,06,17,35,20.30
2016,07,06,17,36,20.30
2016,07,06,17,37,20.20
2016,07,06,17,38,20.20
2016,07,06,17,39,20.10
2016,07,06,17,40,20.10
2016,07,06,17,41,19.90
2016,07,06,17,42,19.80
2016,07,06,17,43,19.70
2016,07,06,17,44,19.60
2016,07,06,17,45,19.60
2016,07,06,17,46,19.50
2016,07,06,17,47,19.50
2016,07,06,17,48,19.40
2016,07,06,17,49,19.40
2016,07,06,17,50,19.40
2016,07,06,17,51,19.30
2016,07,06,17,52,19.30
2016,07,06,17,53,19.30
2016,07,06,17,54,19.30
2016,07,06,17,55,19.30
2016,07,06,17,56,19.30
2016,07,06,17,57,19.30
2016,07,06,17,58,19.30
2016,07,06,17,59,19.30
2016,07,06,18,01,19.40
2016,07,06,18,02,19.40
2016,07,06,18,03,19.40
2016,07,06,18,04,19.50
2016,07,06,18,06,19.60
2016,07,06,18,07,19.60
2016,07,06,18,08,19.60
2016,07,06,18,09,19.60
2016,07,06,18,11,19.60
2016,07,06,18,12,19.70
2016,07,06,18,13,19.70
2016,07,06,18,14,19.70
2016,07,06,18,16,19.70
2016,07,06,18,17,19.80
2016,07,06,18,18,19.80
2016,07,06,18,19,19.90
2016,07,06,18,21,19.90
2016,07,06,18,22,20.10
2016,07,06,18,23,20.20
2016,07,06,18,24,20.20
2016,07,06,18,26,20.20
2016,07,06,18,27,20.30
2016,07,06,18,28,20.30
2016,07,06,18,29,20.20
2016,07,06,18,31,20.20
2016,07,06,18,32,20.20
2016,07,06,18,33,20.20
2016,07,06,18,34,20.20
2016,07,06,18,36,20.20
2016,07,06,18,37,20.20
2016,07,06,18,38,20.20
2016,07,06,18,39,20.20
2016,07,06,18,41,20.20
2016,07,06,18,42,20.20
2016,07,06,18,43,20.30
2016,07,06,18,44,20.30
2016,07,06,18,46,20.40
2016,07,06,18,47,20.50
2016,07,06,18,48,20.60
2016,07,06,18,49,20.60
2016,07,06,18,51,20.60
2016,07,06,18,52,20.60
2016,07,06,18,53,20.50
2016,07,06,18,54,20.40
2016,07,06,18,56,20.20
2016,07,06,18,57,20.20
2016,07,06,18,58,20.20
2016,07,06,18,59,20.20
2016,07,06,19,01,20.10
2016,07,06,19,02,20.10
2016,07,06,19,03,19.90
2016,07,06,19,04,19.90
2016,07,06,19,06,19.70
2016,07,06,19,07,19.70
2016,07,06,19,08,19.60
2016,07,06,19,09,19.60
2016,07,06,19,11,19.50
2016,07,06,19,12,19.50
2016,07,06,19,13,19.50
2016,07,06,19,14,19.60
2016,07,06,19,15,19.60
2016,07,06,19,16,19.60
2016,07,06,19,17,19.70
2016,07,06,19,18,19.70
2016,07,06,19,19,19.80
2016,07,06,19,20,19.80
2016,07,06,19,21,19.80
2016,07,06,19,22,19.80
2016,07,06,19,23,19.80
2016,07,06,19,24,19.70
2016,07,06,19,25,19.70
2016,07,06,19,26,19.70
2016,07,06,19,27,19.70
2016,07,06,19,28,19.70
2016,07,06,19,29,19.70
2016,07,06,19,30,19.60
2016,07,06,19,31,19.60
2016,07,06,19,32,19.60
2016,07,06,19,33,19.60
2016,07,06,19,34,19.50
2016,07,06,19,35,19.50
2016,07,06,19,36,19.50
2016,07,06,19,37,19.40
2016,07,06,19,38,19.40
2016,07,06,19,39,19.30
2016,07,06,19,41,19.10
2016,07,06,19,42,19.10
2016,07,06,19,43,18.90
2016,07,06,19,44,18.80
2016,07,06,19,45,18.60
2016,07,06,19,46,18.40
2016,07,06,19,47,18.30
2016,07,06,19,48,18.20
2016,07,06,19,49,18.10
2016,07,06,19,50,18.10
2016,07,06,19,51,17.90
2016,07,06,19,52,17.90
2016,07,06,19,53,17.90
2016,07,06,19,54,17.90
2016,07,06,19,55,17.80
2016,07,06,19,56,17.80
2016,07,06,19,57,17.80
2016,07,06,19,58,17.80
2016,07,06,19,59,17.80
2016,07,06,20,00,17.80
2016,07,06,20,01,17.80
2016,07,06,20,02,17.80
2016,07,06,20,03,17.80
2016,07,06,20,04,17.90
2016,07,06,20,05,17.90
2016,07,06,20,06,17.90
2016,07,06,20,07,17.90
2016,07,06,20,08,17.90
2016,07,06,20,09,17.90
2016,07,06,20,10,18.10
2016,07,06,20,11,18.10
2016,07,06,20,12,18.10
2016,07,06,20,13,18.10
2016,07,06,20,14,18.20
2016,07,06,20,15,18.20
2016,07,06,20,16,18.20
2016,07,06,20,17,18.20
2016,07,06,20,18,18.20
2016,07,06,20,19,18.20
2016,07,06,20,20,18.20
2016,07,06,20,21,18.20
2016,07,06,20,22,18.10
2016,07,06,20,23,18.10
2016,07,06,20,24,17.90
2016,07,06,20,25,17.90
2016,07,06,20,26,17.90
2016,07,06,20,27,17.80
2016,07,06,20,28,17.70
2016,07,06,20,29,17.60
2016,07,06,20,30,17.60
2016,07,06,20,31,17.30
2016,07,06,20,32,17.10
2016,07,06,20,33,16.80
2016,07,06,20,34,16.70
2016,07,06,20,35,16.60
2016,07,06,20,36,16.40
2016,07,06,20,37,16.30
2016,07,06,20,38,16.20
2016,07,06,20,39,16.10
2016,07,06,20,40,15.90
2016,07,06,20,41,15.80
2016,07,06,20,42,15.70
2016,07,06,20,44,15.50
2016,07,06,20,46,15.30
2016,07,06,20,47,15.30
2016,07,06,20,48,15.20
2016,07,06,20,49,15.20
2016,07,06,20,51,15.10
2016,07,06,20,52,15.10
2016,07,06,20,53,15.00
2016,07,06,20,54,14.90
2016,07,06,20,56,14.80
2016,07,06,20,57,14.80
2016,07,06,20,58,14.80
2016,07,06,20,59,14.80
2016,07,06,21,01,14.80
2016,07,06,21,02,14.80
2016,07,06,21,03,14.80
2016,07,06,21,04,14.80
2016,07,06,21,06,14.80
2016,07,06,21,07,14.80
2016,07,06,21,08,14.80
2016,07,06,21,09,14.90
2016,07,06,21,11,14.90
2016,07,06,21,12,14.90
2016,07,06,21,13,14.90
2016,07,06,21,14,14.90
2016,07,06,21,16,14.80
2016,07,06,21,17,14.80
2016,07,06,21,18,14.80
2016,07,06,21,19,14.80
2016,07,06,21,21,14.80
2016,07,06,21,22,14.80
2016,07,06,21,23,14.80
2016,07,06,21,24,14.80
2016,07,06,21,26,14.80
2016,07,06,21,27,14.80
2016,07,06,21,28,14.70
2016,07,06,21,29,14.70
2016,07,06,21,31,14.70
2016,07,06,21,32,14.70
2016,07,06,21,33,14.70
2016,07,06,21,34,14.70
2016,07,06,21,36,14.60
2016,07,06,21,37,14.50
2016,07,06,21,38,14.50
2016,07,06,21,39,14.40
2016,07,06,21,41,14.40
2016,07,06,21,42,14.40
2016,07,06,21,43,14.30
2016,07,06,21,44,14.30
2016,07,06,21,46,14.30
2016,07,06,21,47,14.30
2016,07,06,21,48,14.30
2016,07,06,21,49,14.30
2016,07,06,21,51,14.30
2016,07,06,21,52,14.20
2016,07,06,21,53,14.20
2016,07,06,21,54,14.20
2016,07,06,21,55,14.20
2016,07,06,21,56,14.20
2016,07,06,21,57,14.20
2016,07,06,21,58,14.10
2016,07,06,21,59,14.10
2016,07,06,22,00,14.10
2016,07,06,22,01,14.00
2016,07,06,22,02,14.00
2016,07,06,22,03,14.00
2016,07,06,22,04,13.90
2016,07,06,22,06,13.80
2016,07,06,22,07,13.80
2016,07,06,22,08,13.70